Theta_e
338 331 325 321 317 317 318 318 317 316 315 313 312 312 312 312 313 315 315 313 313 312 310 309 307 309 310 311 311 313 329 339 344 346 346 343 344 345 338 337 338 341 337
335 332 328 323 319 319 320 318 317 317 316 314 314 314 314 316 316 316 318 318 316 316 315 310 309 307 309 311 313 312 314 329 338 342 344 346 346 344 344 343 344 340 336
329 331 329 326 326 324 323 318 315 315 317 315 313 313 313 320 318 318 321 323 322 321 319 317 310 310 312 317 320 315 313 315 328 338 341 345 345 344 344 342 342 342 339
325 328 327 327 326 327 325 321 319 316 315 314 315 317 323 319 316 317 319 323 324 323 323 322 318 312 316 317 328 319 316 314 316 333 338 341 344 343 342 341 342 342 340
326 325 325 327 328 327 325 323 322 319 315 315 322 325 317 316 318 320 318 317 319 326 328 326 323 321 316 325 317 326 326 324 314 330 335 339 342 343 341 341 345 343 340
326 323 326 328 328 325 321 320 319 317 317 321 323 325 324 319 317 317 317 315 315 318 321 328 327 323 325 323 320 326 326 323 322 325 331 336 339 341 340 340 343 343 340
324 325 326 327 325 321 319 317 315 316 314 316 321 323 323 323 322 322 315 314 318 320 321 325 325 327 325 325 324 325 325 323 323 321 329 332 335 338 339 340 341 342 340
325 325 326 324 322 319 319 318 317 316 318 319 318 318 318 318 317 317 317 319 319 319 324 324 325 326 326 325 322 324 323 323 324 318 328 332 334 337 339 339 339 341 340
324 324 324 321 321 321 320 320 320 317 318 324 324 324 322 321 322 321 320 319 319 319 324 324 323 323 325 324 318 316 324 323 323 318 326 331 335 337 338 339 339 341 336
324 323 322 322 322 322 321 321 321 320 325 325 324 324 321 319 319 319 318 317 316 316 318 320 322 323 325 326 317 317 319 323 323 319 324 329 334 337 338 340 340 340 336
323 323 323 323 322 322 322 321 320 322 325 325 325 324 322 319 318 319 319 321 323 322 319 318 322 323 326 326 320 312 316 319 323 321 322 329 333 337 338 340 341 339 337
323 323 323 323 323 322 321 321 320 323 326 326 324 325 322 320 320 319 320 322 323 324 325 323 323 325 325 326 320 309 311 320 324 321 322 328 334 337 339 340 341 339 335
323 323 323 323 322 321 321 320 323 324 326 325 325 326 321 323 322 321 321 322 322 321 323 325 323 324 324 325 316 309 310 324 324 320 325 330 335 339 340 341 340 338 336
323 323 323 322 323 320 316 316 322 324 324 323 325 324 323 323 322 320 324 323 323 322 322 323 323 323 324 320 315 311 313 324 323 321 327 330 335 339 340 340 339 338 335
324 323 323 323 320 317 317 319 324 326 326 326 324 324 323 323 324 320 321 324 323 322 322 323 323 323 324 319 320 312 322 326 324 322 328 329 333 338 339 339 339 338 336
323 323 322 322 320 315 316 321 326 328 327 326 325 325 324 323 325 324 320 321 320 320 321 322 323 323 322 319 322 321 326 327 327 328 327 331 331 336 340 336 337 336 336
323 323 323 321 319 316 316 325 327 329 329 328 327 325 325 324 324 325 321 322 322 320 321 322 323 323 323 322 320 322 328 326 328 329 328 329 331 332 335 336 337 337 335
323 323 323 321 316 316 317 325 327 329 330 329 327 326 325 325 324 322 320 322 322 320 321 321 323 323 324 323 322 325 327 327 328 328 327 328 331 333 336 336 337 337 336
323 323 323 319 315 316 319 326 328 327 327 327 327 327 325 324 322 321 320 322 322 320 321 321 323 323 324 322 323 324 327 326 329 330 329 328 331 335 335 336 336 334 334
323 324 321 316 317 316 322 328 329 330 328 327 327 326 325 325 323 323 321 322 322 320 321 321 321 322 324 323 324 324 325 327 328 330 327 329 332 333 336 336 333 335 331
324 324 320 316 318 319 324 329 329 329 328 327 328 327 327 326 324 322 322 321 322 321 322 321 321 322 324 324 323 323 324 327 329 328 328 329 332 333 334 335 334 332 329
324 323 319 319 319 323 323 328 328 329 327 327 327 327 327 327 324 325 323 322 321 321 321 321 322 322 323 324 325 327 328 328 329 328 328 331 332 333 334 334 332 331 328
324 323 319 322 321 325 325 328 327 327 328 327 327 326 326 324 324 323 322 322 321 321 322 321 323 324 325 327 326 326 328 328 327 329 330 331 332 332 331 333 332 329 330
325 322 323 325 326 325 328 325 326 329 328 326 327 326 325 322 322 323 322 321 322 322 321 324 323 323 324 326 327 327 327 327 329 332 332 331 332 331 331 332 329 328 330
326 324 325 327 327 325 329 330 329 329 326 326 326 326 326 323 322 322 322 323 323 323 324 324 323 324 325 325 326 328 328 327 329 332 332 331 331 330 331 329 327 327 328
325 324 327 327 326 326 330 330 329 328 325 324 324 325 326 325 324 322 322 324 324 324 326 325 325 326 323 326 327 328 328 326 329 332 332 331 330 330 330 330 328 329 326
Wind_Speed
18 19 11 9 10 8 7 6 5 6 6 6 6 7 8 9 10 11 11 11 10 9 11 11 14 14 16 17 19 21 21 22 20 20 21 23 19 15 12 13 12 10 9
10 16 14 12 8 7 6 6 7 9 9 9 8 9 9 10 9 11 12 13 12 12 10 13 13 15 14 15 17 19 22 21 20 20 20 21 21 20 18 16 16 15 13
12 14 14 10 6 7 7 8 9 11 12 12 12 12 12 11 10 10 12 13 12 13 12 11 14 14 15 14 14 17 21 21 20 21 21 22 23 20 20 16 16 19 21
10 12 9 9 7 7 8 10 12 13 14 14 15 14 12 14 14 13 14 15 14 14 14 12 12 15 14 15 13 16 18 19 20 19 22 22 25 22 17 17 19 20 22
10 5 5 7 7 7 9 12 14 15 16 16 16 16 18 18 18 17 16 17 17 16 16 16 14 14 16 16 17 13 14 15 19 18 19 22 23 26 19 16 20 23 22
9 5 7 8 8 9 10 14 15 16 17 17 18 19 20 22 21 21 20 19 18 19 19 19 18 16 16 18 15 15 15 16 17 18 17 19 23 24 23 20 19 24 23
10 9 10 10 10 10 11 13 13 14 16 18 21 22 23 23 22 23 23 22 21 21 20 20 21 19 18 19 18 18 18 17 16 18 16 17 21 24 26 22 21 24 27
12 11 13 12 11 11 14 14 13 12 12 14 17 19 21 23 25 26 25 24 25 26 23 24 23 22 20 17 20 19 19 17 17 18 16 17 18 22 25 25 24 27 28
12 13 14 12 10 12 15 16 15 16 14 13 15 19 20 22 25 26 26 26 26 26 26 27 25 24 24 21 21 21 18 18 17 17 17 17 16 19 24 27 27 29 30
12 15 15 11 11 14 15 15 15 16 14 14 16 18 15 15 15 15 16 18 20 21 22 24 25 26 25 23 23 20 20 18 17 18 17 17 17 18 23 27 29 32 32
16 14 12 13 14 13 13 15 18 16 16 16 18 16 19 16 12 12 13 14 14 15 15 19 23 26 25 24 22 23 19 18 18 19 19 17 18 17 20 27 31 34 36
16 17 17 16 12 11 13 16 16 16 17 17 16 15 17 11 12 11 11 11 13 13 17 18 21 22 24 25 22 23 20 17 18 20 21 18 17 17 21 28 34 39 35
21 22 21 16 11 12 15 15 13 14 17 16 14 18 15 11 10 10 10 11 12 15 14 15 19 22 23 24 21 20 19 16 17 21 21 18 17 20 24 27 32 36 35
25 27 24 18 13 11 13 11 10 11 11 13 16 16 13 11 9 10 10 10 11 10 12 14 17 19 22 21 16 17 17 15 17 21 23 18 17 21 26 29 33 38 41
26 28 22 17 12 11 11 7 8 9 9 11 11 13 14 14 12 10 11 14 12 11 12 12 16 20 21 18 15 17 17 14 17 20 21 19 17 22 27 26 31 37 32
28 27 21 14 10 11 8 6 9 9 10 11 11 12 15 16 15 11 11 13 13 14 13 13 13 18 21 19 16 20 18 14 18 20 21 20 18 24 24 25 31 30 37
28 23 17 12 10 8 5 5 8 11 12 14 13 12 13 15 15 15 14 13 11 13 14 16 14 17 18 20 18 22 17 16 18 20 20 21 19 24 24 23 29 34 40
28 23 14 11 8 7 4 6 10 12 15 15 14 12 12 14 14 15 14 12 12 13 13 17 17 17 18 19 21 24 17 17 20 20 21 20 20 23 23 23 29 32 36
29 21 14 10 5 4 3 5 10 13 14 13 13 12 11 11 11 13 11 10 11 11 12 16 18 18 18 19 22 19 17 19 20 21 23 22 20 23 22 27 30 32 33
25 17 12 8 3 2 2 4 8 13 14 13 11 9 9 10 11 11 8 9 10 8 10 16 21 19 19 19 18 19 17 17 19 19 21 21 19 20 26 31 34 31 37
22 15 13 8 5 5 3 6 10 15 15 14 9 10 10 8 8 9 9 10 7 5 7 14 16 20 19 15 17 17 17 19 16 18 18 19 20 22 24 31 36 34 37
20 15 12 8 5 4 2 6 11 14 12 14 8 7 9 10 6 10 9 7 5 4 10 14 16 19 17 16 18 19 15 15 14 15 18 21 21 21 27 33 40 39 41
18 15 12 8 5 2 4 5 9 8 11 12 7 6 8 6 3 9 8 7 7 7 10 12 17 18 17 18 16 18 9 6 17 16 20 23 23 24 24 31 37 38 35
17 14 11 9 5 6 3 3 7 10 13 12 5 6 2 1 6 8 8 9 8 8 11 12 17 19 16 17 17 14 11 16 15 15 23 26 26 27 26 29 35 38 32
16 16 12 9 5 6 5 4 8 11 9 7 3 3 2 3 5 10 11 11 11 10 9 10 15 15 15 17 20 17 14 15 21 18 24 28 25 25 28 32 34 37 34
16 15 13 10 5 3 5 3 8 7 8 7 4 3 4 5 8 13 13 15 12 12 10 10 11 15 12 19 18 17 16 23 22 28 29 32 31 27 31 32 34 36 37
Wind_Direction
185 184 183 204 205 216 219 226 252 260 263 263 254 255 264 277 289 291 292 292 285 263 256 248 230 227 228 230 229 226 224 225 224 222 222 220 220 218 201 193 205 190 178
173 184 202 201 203 224 238 259 266 261 263 265 259 250 248 249 261 274 275 280 282 283 265 254 245 229 228 230 232 231 228 227 228 229 225 218 219 215 215 204 208 194 177
188 193 204 204 234 245 251 276 275 273 267 269 270 272 272 255 259 265 269 271 275 281 274 260 246 243 233 235 238 236 233 228 229 229 227 226 220 222 221 210 210 197 200
194 195 213 222 244 253 268 288 283 278 274 276 272 276 270 274 279 270 261 261 265 272 268 266 252 243 244 238 246 239 239 231 228 229 229 226 222 222 217 215 209 197 192
185 215 239 234 232 239 267 274 275 273 272 271 267 267 278 277 277 274 265 263 266 263 264 263 257 248 242 240 240 242 249 238 226 228 230 227 227 223 221 214 209 197 192
196 217 227 227 229 249 276 288 285 276 270 268 269 269 273 277 275 271 270 268 264 261 258 257 263 251 243 242 234 237 242 239 229 226 235 227 225 228 225 220 215 197 195
205 207 218 232 245 277 285 289 292 287 281 271 268 269 273 273 274 268 269 268 268 263 257 249 247 251 237 239 227 234 233 237 233 225 231 231 224 223 226 215 212 205 197
213 208 220 244 256 262 293 295 303 294 288 279 272 270 270 269 267 265 266 265 264 261 253 247 248 243 240 235 229 231 233 235 233 224 227 227 224 219 221 213 208 207 203
223 228 235 247 249 287 297 300 302 308 297 284 281 286 283 278 270 266 266 263 260 255 249 244 242 242 239 235 236 232 233 233 231 222 225 222 219 218 220 211 204 203 197
225 234 238 241 256 278 289 298 297 300 288 290 295 300 298 296 283 270 263 258 258 255 252 245 237 235 234 232 234 232 233 234 229 218 221 218 218 218 215 207 201 193 188
224 235 245 234 248 271 273 288 295 285 282 294 309 312 312 299 288 279 266 252 256 257 246 240 234 231 227 230 234 229 231 233 227 217 216 214 219 216 211 207 195 191 186
221 229 234 228 252 265 281 292 298 290 290 300 303 306 305 297 296 282 269 257 260 260 250 240 231 228 224 226 232 228 229 229 226 217 215 214 219 213 211 207 198 193 190
215 218 217 228 238 274 300 303 303 290 285 285 290 297 293 290 296 276 272 255 253 255 256 241 228 222 222 224 232 226 223 220 221 216 214 213 218 213 206 200 195 190 183
217 208 205 215 249 280 305 306 317 309 301 296 288 290 276 275 287 277 265 261 255 255 249 240 233 222 218 222 222 217 215 212 214 212 215 215 213 202 200 200 199 195 190
216 206 213 232 260 298 307 306 325 344 318 311 292 279 278 283 273 283 271 261 262 263 256 243 230 222 217 216 217 208 201 206 210 207 216 216 210 203 201 198 200 196 196
208 215 221 234 261 301 323 324 324 322 320 315 304 283 276 278 274 276 282 268 259 267 253 241 225 216 219 216 219 199 201 202 203 207 210 215 212 200 200 197 200 199 187
219 216 220 237 264 308 328 319 336 337 325 314 309 294 282 279 271 271 280 271 264 269 251 234 221 219 221 213 214 197 207 203 207 214 210 215 215 204 206 204 197 198 194
217 211 220 239 275 312 317 328 333 322 319 311 301 294 287 276 271 266 265 261 266 267 248 230 220 213 212 209 199 201 208 214 211 223 214 217 217 204 206 196 187 190 171
216 212 223 232 264 310 308 321 321 326 319 308 291 289 281 273 271 264 248 256 268 266 246 227 217 209 204 203 196 204 209 213 212 222 214 214 213 197 189 185 186 177 162
209 214 220 214 231 203 204 286 302 324 329 325 305 298 292 283 263 256 242 257 265 262 246 211 207 207 201 206 205 204 215 211 224 207 205 209 209 199 190 182 174 174 160
207 210 203 204 185 177 212 285 306 314 327 331 305 293 289 297 268 240 229 241 256 248 214 193 198 199 198 204 205 203 202 204 207 196 202 207 197 199 195 195 176 169 162
204 198 196 190 172 155 269 273 305 314 329 335 307 307 306 294 254 234 220 228 214 198 180 184 191 194 201 197 189 172 162 191 201 199 204 199 190 189 192 180 165 170 164
195 195 192 180 164 159 208 292 317 323 335 337 318 305 316 294 243 183 202 196 183 174 175 180 182 189 195 189 197 179 147 175 183 197 196 192 187 174 174 169 173 168 163
191 186 177 179 168 207 222 304 333 333 336 334 320 318 340 356 159 176 173 166 164 161 172 187 195 189 195 195 186 196 194 196 169 168 190 185 178 178 178 168 172 169 163
186 180 177 178 204 226 243 331 341 334 346 348 348 0 30 145 160 162 153 149 154 158 160 171 176 187 194 192 193 197 208 195 181 176 149 165 169 171 172 171 172 170 166
178 174 178 185 206 230 189 265 320 332 5 6 355 325 351 187 177 166 163 160 153 155 150 162 185 182 194 189 190 206 214 189 192 157 154 157 167 176 178 180 172 174 169